Flag for France Weather past 2 weeks in Bastia, Corsica, France

Now
75 °F

Sunny.


Feels Like: 76 °F
Forecast: 69 / 83 °F
Wind: 2 mph from North

Location: Bastia Airport

Current Time: Aug 28, 2015 at 9:39:31 AM

Latest Report: Aug 28, 2015 at 9:00 AM


Visibility: 10 mi

Pressure: 30.09 "Hg

Humidity: 78%

Dew point: 68 °F

Location of BastiaLocation

Historic Weather in Bastia — Graph

°F

Bastia temperature yesterday

Maximum temperature yesterday: 84 °F (at 2:30 PM)
Minimum temperature yesterday: 64 °F (at 3:30 AM)
Average temperature yesterday: 74 °F

Past Weeks' High & Low Weather Summary

 TemperatureHumidityPressure
High91 °F (Aug 13, 11:00 AM)94% (Aug 14, 5:00 PM)30.12 "Hg (Aug 14, 5:00 PM)
Low61 °F (Aug 18, 3:00 AM)30% (Aug 13, 11:00 AM)29.77 "Hg (Aug 15, 5:30 PM)
Average74 °F70%29.93 "Hg
* Reported Aug 13 8:00 AM — Aug 28 8:30 AM, Bastia, Weather by CustomWeather, © 2015

Note: Actual official high and low records may vary slightly from our data, if they occured in-between our weather recording intervals... More about our weather records

Advertising

Bastia weather history for previous 24 hours

 ConditionsComfort  
Time TempWeatherWind HumidityBarometerVisibility
8:30 AM
Fri, Aug 28
73 °FSunny.3 mph74%30.09 "Hg10 mi
8:00 AM70 °FSunny.1 mph78%30.09 "Hg10 mi
7:30 AM66 °FClear.No wind88%30.07 "Hg10 mi
7:00 AM64 °FClear.No wind88%30.07 "Hg10 mi
6:30 AM66 °FClear.2 mph83%30.07 "Hg10 mi
6:00 AM66 °FClear.3 mph83%30.07 "Hg10 mi
5:30 AM64 °FClear.5 mph88%30.07 "Hg10 mi
5:00 AM66 °FClear.3 mph83%30.07 "Hg10 mi
4:30 AM66 °FClear.3 mph83%30.07 "Hg10 mi
4:00 AM66 °FClear.5 mph88%30.07 "Hg10 mi
3:30 AM66 °FClear.3 mph88%30.07 "Hg10 mi
3:00 AM66 °FClear.3 mph88%30.07 "Hg10 mi
2:30 AM68 °FClear.5 mph83%30.07 "Hg10 mi
2:00 AM68 °FClear.3 mph83%30.07 "Hg10 mi
1:30 AM68 °FClear.3 mph83%30.07 "Hg10 mi
1:00 AM68 °FClear.5 mph88%30.07 "Hg10 mi
12:30 AM68 °FClear.1 mph88%30.07 "Hg10 mi
12:00 AM68 °FClear.1 mph88%30.07 "Hg10 mi
11:30 PM
Thu, Aug 27
70 °FClear.3 mph83%30.07 "Hg10 mi
11:00 PM70 °FClear.5 mph88%30.07 "Hg10 mi
10:30 PM70 °FClear.3 mph88%30.07 "Hg10 mi
10:00 PM72 °FClear.3 mph88%30.04 "Hg10 mi
9:30 PM72 °FClear.2 mph88%30.04 "Hg10 mi
9:00 PM73 °FSunny.No wind83%30.04 "Hg10 mi
8:30 PM75 °FSunny.No wind78%30.04 "Hg10 mi
8:00 PM77 °FSunny.2 mph74%30.01 "Hg10 mi
7:30 PM79 °FSunny.3 mph70%30.01 "Hg10 mi
7:00 PM81 °FPassing clouds.3 mph66%30.01 "HgN/A
6:30 PM81 °FPassing clouds.3 mph66%30.04 "HgN/A
6:00 PM82 °FPassing clouds.3 mph62%30.04 "HgN/A
5:30 PM82 °FPassing clouds.3 mph62%30.04 "HgN/A
5:00 PM82 °FPassing clouds.5 mph58%30.04 "HgN/A
4:30 PM82 °FPassing clouds.7 mph58%30.04 "HgN/A
4:00 PM82 °FPassing clouds.8 mph58%30.04 "HgN/A
3:46 PM84 °FPassing clouds.8 mph55%30.04 "HgN/A
3:15 PM84 °FPassing clouds.7 mph51%30.04 "HgN/A
2:30 PM84 °FPassing clouds.6 mph51%30.04 "HgN/A
2:00 PM82 °FPassing clouds.6 mph55%30.04 "HgN/A
1:30 PM82 °FPassing clouds.6 mph58%30.04 "HgN/A
1:00 PM82 °FSunny.6 mph58%30.04 "Hg10 mi
12:35 PM82 °FPassing clouds.6 mph55%30.04 "HgN/A
11:30 AM82 °FPassing clouds.7 mph55%30.07 "HgN/A
10:30 AM81 °FSunny.3 mph54%30.04 "Hg10 mi
10:00 AM81 °FSunny.1 mph58%30.04 "Hg10 mi
9:30 AM79 °FSunny.2 mph58%30.04 "Hg10 mi
9:00 AM77 °FSunny.2 mph61%30.04 "Hg10 mi
Weather by CustomWeather, © 2015

See weather overviewHow to use our weather pages